7 * 24
多渠道服务支持
STARLINK-36989(NORAD编号68277)是SpaceX星链卫星互联网星座的成员卫星,属于星链大规模低轨卫星组网中的一颗,星链项目是SpaceX核心增长引擎,旨在通过近地轨道卫星群构建覆盖全球的高速互联网。 作为低轨通信卫星,它沿用星链成熟技术方案,配备相控阵天线与激光通信终端,可配合星座实现波束精准转向与高速星间数据传输,为全球地面网络覆盖盲区提供宽带通信服务,目前该卫星随星链整体组网稳定运营,支撑星座的全球通信覆盖能力。
美国
(US)
| 数据来源 | 国际轨道数据 |
| 星历时间: | 2026-04-14T17:53:19+0800 10小时前 查看轨道信息 |
| 半长轴: | 6705.886km |
| 偏心率: | 0.0001106 |
| 轨道倾角: | 53.159° |
| 近地点辐角 | 67.657° |
| 升交点赤经 | 158.121° |
| 平近点角 | 292.457° |
| 近地点: | 327.007km |
| 远地点: | 328.491km |
| 周期: | 91.084分钟 |
| 每日圈数: | 15.809514 |